Погода в Тихорецке

Погода в Тихорецке : погода сейчас, прогноз погоды и архив. Всё, что Вы хотите узнать о погоде в Тихорецке!

Хотите узнать прогноз погоды в Тихорецке? Тогда Вам сюда: Погода в Тихорецке

Поиск расширенной информации на нашем сайте:

Другие новости

Новости СМИ2

Главная страница сайта

Новости сайта

03.07.2017

Напоминаем, что на нашем специализированном сайте Метеоцентр.Азия вы можете получить высокодетализированные автоматические прогнозы погоды по пунктам России, СНГ и мира в авиационном формате (включающие направление и скорость ветра, видимость, явления погоды, количество и форму облачности, нижнюю и верхнюю границу облачности).


Погода в Тихорецке - сегодня

Время (UTC), дата Ветер
(°,м/с) 
Видим.   Явления Облачность Т
(°С)
Тd
(°С)
f(%) Тe
(°С)
Pmin
(гПа)
dP
(гПа)
Po
(мм)
O2
(г/м3)
Тmin Tmax R s Состояние
почвы
15 17.10.17 250 (З) 4{10}  10 км    10/10 600 м 
[Sc]
+16 +9.7 66 +17  1019.4  0.6  758  287    +18.1       
18 17.10.17 260 (З) 2{10}  10 км    10/10 1000 м 
[Sc]
+14.7 +11.1 79 +17  1021  1.5  759  288           
21 17.10.17 тихо ()   10 км    10/10 1000 м 
[Sc]
+12.2 +10.8 91 +14  1022  0.9  759  291           
00 18.10.17 тихо ()   10 км    10/10 1000 м 
[Sc]
+9.2 +8.3 94 +9  1022.5  0.4  760  295           
03 18.10.17 тихо ()   10 км    10/10 600 м 
[Sc]
+11.1 +10.2 94 +12  1023.3  0.8  760  293  +9.1         
06 18.10.17 090 (В) 10 км    10/10 600 м 
[Sc]
+12.6 +11.7 94 +17  1024.4  1.1  761  291           
09 18.10.17 110 (В) 10 км    10/10 1000 м 
[Sc]
+15 +11.7 81 +19  1023.9  -0.4  761  288           
12 18.10.17 240 (ЮЗ) 10 км    ясно 600 м 
+17.1 +12.6 75 +23  1022.9  -0.9  760  286           
15 18.10.17 тихо ()   10 км    ясно 1000 м 
+14 +12.6 91 +18  1022.9  0.1  760  289    +17.4       
18 18.10.17 тихо ()   10 км    10/10 1000 м 
+13.1 +12.2 94 +17  1022.8  -0.2  760  290           
21 18.10.17 тихо ()   10 км    10/10 1000 м 
+11.7 +10.9 95 +14  1022.8  -0.2  760  292           
00 19.10.17 220 (ЮЗ) 10 км    10/10 1000 м 
+10.4 +9.6 95 +12  1022.6  -0.2  760  293           
03 19.10.17 тихо ()   10 км    ясно 1000 м 
+7.4 +6.6 95 +7  1022.4  -0.3  760  297  +7.4         
06 19.10.17 180 (Ю) 10 км    ясно 
+10.6 +9.8 95 +13  1022.6  0.3  760  293           
09 19.10.17 200 (Ю) 10 км    ясно 
+17 +11.5 70 +20  1021.5  -0.9  759  286           
12 19.10.17 240 (ЮЗ) 10 км    3/3 600 м 
[Cu med, cong]
+18.3 +10.3 60 +20  1020.1  -1.3  758  284           
15 19.10.17 тихо ()   10 км    ясно 
+12.7 +10.2 85 +14  1019.9  -0.4  758  290    +18.5       
18 19.10.17 тихо ()   10 км    ясно 
+10.3 +9.4 94 +11  1019.9  0.1  758  293           
21 19.10.17 170 (Ю) 4000 м  дымка  ясно 
+8.6 +7.8 95 +10  1019.4  -0.5  757  295           
00 20.10.17 тихо ()   4000 м  дымка  ясно 
+7.2 +6.4 95 +7  1019.3  0.1  757  296           
03 20.10.17 160 (Ю) 2000 м  дымка  ясно 
+7.3 +6.5 95 +8  1019.5  0.2  757  296  +6.5         
06 20.10.17 170 (Ю) 0500 м  туман  ?/?  
+9.5 +8.8 95 +11  1020.1  0.6  758  294           
09 20.10.17 270 (З) 10 км  {туман}  10/10 600 м 
[St]
+13.8 +11.7 87 +17  1019.5  -0.4  758  288           
12 20.10.17 330 (СЗ) 10 км  {туман}  10/10 600 м 
[St]
+14.7 +11 78 +17  1018.9  -0.5  757  287           
15 20.10.17 350 (С) 10 км    10/0 верхняя 
[Ci fib]
+12.3 +10.2 87 +15  1019.1  0.1  757  290    +15.9       
Время (UTC), дата Ветер
(°,м/с) 
Видим.   Явления Облачность Т
(°С)
Тd
(°С)
f(%) Тe
(°С)
Pmin
(гПа)
dP
(гПа)
Po
(мм)
O2
(г/м3)
Тmin Tmax R s Состояние
почвы

Для получения пояснительной информации подведите курсор к названию столбца.

ПОГОДА в Тихорецке - архив

Всё, что Вы хотите узнать о погоде в Тихорецке - удобно и подробно!

Выберите нужную дату (начиная с 1 января 2015* года) и нажмите кнопку "Найти".
Будут отображены архивные сводки погоды по пункту Тихорецк, начиная с указанной даты.


Отображать данные в формате CSV (для использования в таблицах Excel)


Внимание! Наш архив погоды предназначен исключительно для личного некоммерческого использования в познавательных целях. Если Вам необходимы официальные справки о состоянии погоды (для производственных, юридических, коммерческих и т.п. целей), обращайтесь в органы Росгидромета.

*Примечание: данная дата относится к архиву по метеостанциям СССР (Россия, СНГ, Балтия).
Архив по метеостанциям Зарубежной Европы и Азии (кроме Китая) хранится 10 дней, по другим регионам земного шара (Китай, Африка, Америка, Австралия, Океания) - 1 день.

Тихорецк - район местоположения метеостанции


Название, широта, долгота, высота метеостанции:
Тихорецк 45.9°ш. 40.1°д. 78 м над ур. моря [Российская Федерация]

Дополнительная информация

В oтличие oт бoльшинства пoгoдных сайтoв мы публикуем пoдрoбную метеoинфoрмацию в детальнoм прoфессиoнальнoм фoрмате.

Характеристики температуры и влажнoсти вoздуха измеряются на высoте 2 м в тени вдали oт зданий и деревьев.
Скoрoсть ветра измеряется на высoте 10 м (на урoвне рoста челoвека скoрoсть ветра ниже в 1.5-2 раза). Если метеoстанция нахoдится в гoрoде или в лесу, тo скoрoсть ветра занижена на 2-4 м/с пo сравнению с oткрытым местoм. Скoрoсть ветра над акватoриями крупных рек и oзёр, а также на вершинах хoлмoв на 2-5 м/с выше, чем в oбычных услoвиях.
Атмoсфернoе давление в разных тoчках местнoсти мoжет значительнo oтличаться oт давления на метеoстанции, в зависимoсти oт услoвий рельефа (при пoдъёме на 10 м давление пoнижается примернo на 1 мм рт.ст.).